ノヴィチョノク-ゲルケ彗星

P/2011 R3 ( Novichonok-Gerke )

English version
Home page
Updated on May 7, 2015

---------------------------------------------------------------------

・ プロフィール

発見日 2011年9月7日
発見光度 18.9等
発見者 Artyom O. Novichonok and Vladimir V. Gerke (TAU station of the Ka-Dar Observatory, near Nizhniy Arkhyz, Russia)

・ 写真集

・ 軌道要素

Epoch 2012 Mar. 14.0 TT = JDT 2456000.5
T 2012 Apr. 3.10777 TT                                  MPC
q   3.5577502            (2000.0)            P               Q
n   0.09215463     Peri.  225.19236     +0.56919521     -0.81995512
a   4.8542776      Node   190.62115     +0.81621993     +0.57240601
e   0.2670897      Incl.   19.24411     +0.09900423     -0.00499637
P  10.7
From 408 observations 2011 Sept. 7-2014 Apr. 17, mean residual 0".6.

・ 光度変化

        m1 = 10.0 + 5 logΔ + 10.0 log r

---------------------------------------------------------------------

軌道要素はM.P.E.C. 2014-T44に掲載されたものです。
光度グラフはComet for Windowsで作成したものです。

---------------------------------------------------------------------

Copyright(C) Seiichi Yoshida (comet@aerith.net). All rights reserved.